Wind_Speed
48 48 47 50 52 46 41 41 40 43 43 42 44 46 49 53 54 54 55 56 62 63 66 62 60 60 59 63 68 75 78 68 68 46 41 44 48 51 56 61 64 66 70 72 78 81 81 83 88
48 49 50 49 50 49 42 42 39 40 44 44 47 48 52 54 55 60 59 64 62 67 70 68 61 56 66 64 71 78 73 72 51 42 45 46 48 55 59 60 65 69 71 75 78 81 85 87 88
53 52 54 53 50 50 48 42 43 42 42 47 47 46 51 57 60 63 66 64 64 69 67 64 61 66 70 73 78 77 72 61 45 45 46 51 55 55 58 62 62 66 72 75 80 83 86 90 93
57 54 53 53 55 55 52 45 45 46 47 49 49 49 48 57 62 66 64 66 67 73 72 65 67 71 75 78 80 76 67 48 45 49 50 54 55 55 57 61 65 68 70 73 78 84 91 93 94
56 55 58 57 59 54 54 50 49 52 53 53 51 48 55 62 65 65 65 67 72 77 72 68 71 76 79 84 80 71 57 48 48 49 54 56 58 59 61 63 67 70 74 76 78 81 86 94 96
57 56 58 60 61 56 55 53 57 57 56 55 54 54 61 65 66 63 68 72 77 73 70 69 74 80 81 80 76 59 51 49 51 51 54 57 59 63 66 66 68 72 74 77 79 83 86 88 91
58 59 59 62 62 63 57 53 59 61 62 58 50 61 63 66 68 69 72 72 76 71 70 73 79 82 77 78 66 52 51 48 48 52 53 55 55 58 62 66 69 72 75 76 79 81 83 86 86
62 60 64 67 66 65 61 59 61 62 61 57 62 66 68 70 69 72 72 73 71 71 75 80 82 75 84 68 57 54 54 52 45 48 50 53 56 61 64 65 66 69 70 71 74 76 80 82 83
67 66 67 69 67 63 64 62 65 65 64 64 66 70 66 67 68 72 74 70 74 74 79 80 85 87 71 53 54 54 54 52 49 53 56 57 58 62 62 62 60 61 60 62 64 68 72 77 79
70 68 68 70 68 67 70 68 68 67 67 69 71 74 65 64 67 70 70 71 71 78 82 86 86 73 58 53 54 56 56 55 53 54 56 59 61 58 56 53 52 53 53 55 57 61 64 69 71
72 64 65 68 71 72 71 68 71 72 70 70 72 71 66 73 73 69 70 70 74 81 91 92 74 61 58 54 55 56 53 54 54 54 57 58 54 52 50 50 47 47 47 48 49 53 56 58 63
69 63 66 65 70 72 71 70 72 69 66 70 73 61 67 70 69 68 70 77 82 84 77 60 58 55 56 56 52 53 50 52 51 54 52 49 46 47 44 44 47 48 46 45 46 48 50 51 55
73 74 72 72 73 71 69 70 67 64 68 67 64 60 65 64 70 73 79 79 80 81 68 59 56 54 51 51 53 52 51 51 50 47 47 43 42 39 41 45 47 42 38 39 42 44 45 46 45
75 73 70 68 63 65 62 62 65 66 66 67 61 61 63 68 74 79 81 81 88 67 59 56 53 49 48 51 52 50 49 47 42 42 42 39 36 37 40 40 39 35 31 33 36 37 40 41 42
66 63 62 63 64 65 63 64 61 62 63 60 58 61 67 74 78 81 82 81 74 61 58 55 52 49 49 50 49 46 44 38 39 39 35 32 35 35 38 34 33 29 27 30 30 30 34 36 41
64 61 60 65 58 59 59 63 59 59 56 53 57 63 70 65 69 77 74 75 62 56 56 54 54 48 48 49 46 42 35 37 35 32 31 29 31 36 37 33 28 26 25 25 26 26 28 32 39
66 61 63 58 58 60 58 59 53 52 51 55 60 66 61 68 73 71 65 62 57 56 54 52 50 47 47 45 39 36 35 33 29 30 27 28 31 33 36 31 25 24 21 20 22 21 25 30 36
67 64 55 61 59 60 61 51 47 50 52 56 62 59 64 70 62 63 61 57 56 55 51 49 46 44 43 36 33 34 32 28 28 25 27 27 28 31 35 27 23 21 17 17 17 18 23 28 34
64 58 57 61 61 60 47 39 44 48 51 55 57 64 70 63 70 59 54 53 53 49 47 44 41 41 36 30 32 31 27 26 26 24 29 28 31 32 30 23 21 16 13 12 14 17 23 27 32
59 57 59 62 60 51 39 43 46 52 55 58 61 60 61 70 57 55 54 51 49 47 44 40 38 35 28 30 29 25 24 23 23 24 24 25 32 31 26 22 16 12 9 11 15 19 25 29 29
59 57 58 53 46 37 39 46 51 54 57 58 54 57 59 47 49 50 50 45 46 42 38 37 35 28 27 28 24 20 20 22 23 19 21 27 32 27 21 20 12 9 8 11 15 19 25 28 29
59 51 48 37 39 47 47 52 52 52 52 52 53 40 40 45 44 45 43 41 40 36 34 32 27 26 27 23 18 16 18 19 19 23 22 26 28 21 18 16 8 6 9 12 18 22 27 30 31
43 52 44 41 49 51 52 52 52 50 50 49 36 36 37 34 38 42 34 36 34 31 30 24 24 25 22 18 14 12 13 13 14 17 25 29 25 23 16 11 5 6 11 12 17 24 27 28 30
47 40 42 43 44 47 48 49 53 48 44 42 37 29 28 31 34 35 33 31 28 25 21 22 24 25 19 14 9 9 8 11 18 23 31 32 24 20 15 5 4 9 13 17 19 25 27 29 33
51 44 43 48 48 53 51 42 49 39 38 35 29 26 23 27 31 28 27 26 22 19 20 23 24 22 15 8 5 5 5 15 18 24 31 31 21 18 12 2 6 11 16 20 22 23 28 33 44
52 53 51 52 52 51 46 39 42 34 35 25 27 19 19 25 26 25 26 22 18 19 21 21 22 17 10 6 7 5 7 16 17 24 30 26 20 18 9 5 10 14 16 20 22 20 31 42 51
60 51 52 53 49 45 46 47 40 32 26 24 18 16 19 24 28 23 23 18 18 19 20 19 19 14 9 7 8 2 9 13 18 24 30 24 19 17 11 6 11 13 17 19 22 23 32 43 48
56 58 54 46 41 43 47 41 32 25 19 18 12 16 17 21 26 22 22 16 17 16 19 18 19 14 10 7 8 3 10 14 14 23 32 23 19 16 13 9 13 16 19 21 22 25 34 44 47
59 56 52 49 42 37 35 28 26 23 19 13 13 14 17 18 24 22 22 16 15 15 18 17 18 13 9 4 8 9 11 16 16 21 28 23 16 16 16 16 14 18 20 22 25 26 32 35 43
66 61 54 50 40 43 38 28 29 21 19 9 8 12 17 20 25 24 21 15 17 16 17 18 17 14 8 7 13 5 5 14 18 22 26 17 16 15 18 18 18 16 15 18 22 24 29 37 42
Wind_Direction
289 287 291 296 299 293 300 310 300 297 297 301 302 305 296 300 301 302 301 303 306 306 305 305 301 299 298 308 309 313 311 308 308 289 270 266 262 261 254 250 250 249 248 244 239 239 239 237 236
284 289 287 297 299 294 299 303 302 304 301 300 303 304 294 295 297 300 299 306 305 304 304 303 302 296 305 309 309 310 308 309 297 276 268 266 268 262 259 257 255 251 250 248 245 241 238 238 236
285 285 287 292 297 298 297 298 301 301 298 304 305 300 295 289 296 298 300 304 302 308 305 306 299 304 309 309 309 309 309 305 283 274 267 264 270 266 259 256 255 256 252 248 246 244 241 237 236
283 284 287 290 295 298 289 293 297 296 298 303 303 298 304 296 295 298 297 301 302 307 308 299 297 308 309 309 308 309 306 293 277 272 270 269 267 265 264 262 258 255 255 255 251 247 243 240 238
284 283 289 288 292 294 289 290 290 293 302 303 297 301 305 302 301 303 298 301 301 306 303 296 305 309 309 311 308 304 298 291 277 271 270 268 266 265 265 265 263 260 257 255 253 252 248 245 241
280 281 284 285 289 290 293 288 289 295 301 301 299 300 305 304 305 301 301 304 305 301 296 298 305 309 310 306 307 296 293 289 280 272 271 267 265 264 265 264 261 259 257 256 254 253 251 249 246
279 281 284 283 285 292 292 293 287 291 297 301 295 298 304 306 305 303 303 304 304 301 298 301 305 310 311 309 303 294 290 286 279 279 279 272 271 268 266 265 262 260 259 257 255 254 252 248 245
277 277 278 281 285 289 287 291 290 291 296 295 296 304 305 307 305 303 302 303 301 301 302 305 306 310 309 303 297 296 295 293 286 286 287 284 280 278 276 273 270 266 263 258 256 254 252 249 245
277 277 276 279 286 284 285 291 290 294 297 296 295 300 303 303 301 301 302 299 298 302 305 307 307 310 305 297 298 297 296 296 295 293 291 289 289 286 283 277 273 269 266 262 258 254 252 250 248
275 279 272 280 282 285 289 290 290 294 294 296 295 298 301 299 298 300 299 299 303 306 310 310 310 307 301 300 299 299 301 296 295 292 292 291 292 289 283 279 275 272 268 263 259 255 251 247 244
275 274 276 278 282 285 287 288 293 294 294 294 297 301 300 298 299 297 295 298 305 309 309 307 305 302 300 298 300 303 298 294 293 296 293 293 290 286 283 281 280 277 275 268 260 254 248 246 241
274 276 274 276 278 281 285 289 289 289 293 297 298 297 299 299 295 296 299 297 304 311 310 310 306 304 299 298 301 296 295 296 297 294 292 290 288 286 286 288 288 284 279 268 258 254 249 244 238
270 272 275 275 279 284 286 287 285 289 296 297 299 297 294 293 294 295 299 303 310 312 308 311 306 302 300 301 301 301 302 301 297 296 294 295 292 290 290 288 286 284 271 260 254 248 247 241 234
269 274 273 276 280 282 285 288 288 289 293 296 298 295 294 296 297 299 303 310 313 311 313 314 308 303 304 304 304 302 304 298 299 298 297 296 294 291 291 290 288 281 268 254 248 246 241 237 233
269 270 272 274 279 280 282 283 287 290 291 296 297 293 294 293 298 301 313 316 314 311 314 312 308 307 307 306 304 306 302 302 302 298 295 296 294 295 298 295 292 281 268 259 254 248 237 230 224
265 267 269 273 279 280 285 282 287 290 294 296 294 292 294 305 314 313 315 313 311 312 312 309 311 307 305 306 310 306 306 305 300 292 297 295 292 295 298 297 295 283 273 262 254 245 233 221 218
262 263 270 275 276 278 282 284 291 294 295 291 292 294 303 310 316 316 308 308 311 313 311 309 308 306 306 313 312 310 312 305 292 292 292 292 295 297 300 299 297 287 275 259 249 235 221 214 212
261 267 271 272 276 280 282 284 288 289 288 288 292 299 306 312 317 306 306 310 316 313 307 307 307 307 312 315 308 312 307 296 293 291 291 294 300 303 302 301 301 288 269 250 235 219 209 204 204
264 267 269 270 274 278 277 280 282 282 287 295 303 306 307 312 309 303 304 314 316 309 307 311 309 312 316 311 312 312 300 290 296 291 292 302 305 306 307 303 301 282 257 232 215 203 196 195 199
265 268 266 271 273 274 272 274 272 281 293 297 303 309 308 305 306 308 312 313 311 307 308 311 313 317 317 315 316 310 300 300 294 297 303 311 312 317 311 307 293 273 237 212 196 191 183 187 191
263 263 267 269 274 276 268 271 281 288 292 295 307 309 308 306 308 310 310 311 308 309 313 313 317 320 323 316 311 305 300 291 293 300 306 324 321 321 320 309 287 266 205 193 180 183 180 180 183
263 260 263 263 266 262 263 276 278 284 291 301 309 306 301 299 308 308 310 308 312 317 316 315 322 322 321 311 305 304 298 292 302 309 322 325 327 331 331 316 284 238 183 179 175 174 173 175 178
246 253 256 256 255 259 265 273 279 290 299 312 309 294 295 317 312 306 312 313 318 316 316 324 323 326 319 306 301 292 297 313 339 350 355 348 329 337 334 319 248 190 172 168 168 171 172 172 179
244 245 245 252 256 265 267 276 280 295 304 308 296 296 312 308 309 312 316 316 322 318 327 329 328 329 313 309 305 278 314 15 13 4 360 353 341 344 335 309 197 160 163 166 168 166 167 169 171
248 249 252 255 259 261 267 280 284 297 301 303 283 288 312 330 325 317 320 324 327 329 332 326 329 328 313 310 279 267 349 14 353 356 353 354 355 352 344 144 158 162 157 165 174 171 167 164 165
240 244 248 252 255 261 271 283 290 291 293 275 276 296 319 333 334 331 328 331 330 327 331 327 335 325 322 301 254 256 30 5 358 3 356 1 11 6 14 133 149 155 155 166 171 172 166 164 167
237 240 244 248 258 270 273 277 286 278 276 264 276 332 339 344 343 329 334 338 334 322 330 336 340 331 319 294 238 252 34 350 2 12 4 11 21 14 25 101 139 154 153 166 167 170 172 171 168
235 241 245 257 266 268 272 281 275 252 251 259 286 338 343 352 346 333 345 345 339 335 344 344 349 334 307 280 211 119 38 1 7 14 12 18 24 30 49 88 135 150 159 166 174 172 174 175 171
242 247 251 256 261 266 268 263 235 232 238 254 300 334 356 352 349 347 354 350 351 349 352 348 351 336 315 266 189 101 54 15 20 20 11 16 37 52 64 83 121 140 148 167 172 175 179 186 173
238 244 255 260 266 266 266 231 218 223 235 254 304 332 2 3 1 2 359 3 357 352 352 353 353 340 315 247 169 123 71 15 26 24 11 29 56 64 72 84 107 112 130 150 169 169 173 176 172
Height
10934 10933 10930 10929 10929 10929 10928 10928 10925 10923 10922 10921 10920 10917 10913 10907 10903 10901 10895 10893 10887 10880 10875 10873 10869 10864 10861 10854 10850 10846 10840 10834 10830 10826 10826 10826 10828 10829 10831 10831 10832 10833 10834 10836 10840 10844 10849 10857 10863
10929 10927 10925 10924 10924 10923 10924 10919 10920 10919 10916 10914 10910 10910 10904 10897 10893 10893 10887 10884 10877 10869 10863 10859 10856 10853 10848 10842 10837 10833 10827 10820 10814 10813 10814 10814 10814 10814 10816 10817 10818 10820 10821 10821 10823 10826 10831 10839 10847
10923 10921 10919 10916 10917 10918 10917 10915 10913 10912 10911 10908 10907 10906 10899 10890 10883 10881 10879 10874 10868 10861 10852 10847 10844 10840 10833 10828 10822 10817 10810 10804 10802 10801 10801 10801 10799 10799 10800 10801 10803 10803 10804 10805 10806 10808 10811 10818 10826
10915 10914 10913 10909 10909 10910 10909 10910 10908 10903 10902 10901 10898 10895 10894 10881 10878 10875 10870 10864 10857 10849 10842 10836 10831 10824 10820 10813 10807 10802 10796 10792 10790 10788 10787 10786 10784 10784 10784 10783 10785 10787 10788 10789 10791 10794 10795 10800 10807
10908 10908 10906 10901 10900 10901 10901 10903 10901 10897 10896 10893 10888 10885 10879 10875 10868 10865 10862 10855 10847 10838 10830 10825 10818 10813 10803 10796 10791 10783 10779 10777 10775 10775 10773 10771 10770 10769 10769 10768 10766 10766 10768 10771 10771 10773 10778 10781 10788
10900 10902 10899 10893 10890 10892 10894 10893 10890 10886 10884 10881 10879 10874 10866 10860 10855 10853 10852 10845 10835 10827 10821 10814 10808 10802 10793 10783 10775 10770 10766 10764 10761 10759 10757 10756 10755 10753 10751 10750 10749 10747 10748 10749 10752 10753 10755 10761 10767
10893 10895 10890 10886 10883 10880 10885 10886 10883 10881 10877 10872 10871 10865 10853 10848 10844 10839 10835 10829 10820 10813 10808 10802 10797 10789 10781 10770 10761 10756 10753 10752 10749 10746 10742 10740 10739 10736 10733 10731 10728 10727 10727 10729 10730 10731 10733 10738 10745
10884 10888 10880 10876 10877 10876 10871 10875 10872 10870 10872 10866 10859 10854 10840 10835 10831 10825 10821 10816 10806 10798 10793 10787 10783 10778 10768 10757 10751 10744 10739 10737 10737 10732 10727 10724 10722 10719 10715 10713 10709 10706 10705 10707 10708 10710 10711 10714 10720
10875 10879 10869 10864 10868 10867 10863 10865 10858 10858 10858 10857 10854 10847 10834 10826 10821 10814 10808 10803 10800 10790 10782 10774 10768 10760 10751 10743 10737 10731 10725 10721 10719 10715 10712 10707 10704 10699 10694 10689 10686 10685 10684 10684 10686 10687 10690 10692 10698
10863 10869 10858 10855 10855 10858 10856 10853 10848 10846 10843 10844 10842 10837 10827 10819 10811 10806 10801 10793 10787 10779 10769 10759 10750 10743 10738 10732 10726 10720 10713 10708 10704 10701 10695 10691 10686 10680 10675 10671 10668 10666 10664 10663 10664 10665 10668 10671 10678
10853 10860 10851 10845 10844 10845 10845 10841 10839 10835 10831 10830 10829 10821 10812 10805 10800 10796 10791 10785 10778 10766 10756 10748 10737 10731 10727 10721 10716 10710 10703 10697 10692 10687 10680 10676 10671 10665 10660 10656 10653 10650 10647 10646 10645 10647 10649 10653 10659
10846 10845 10842 10840 10834 10835 10834 10833 10828 10825 10823 10819 10816 10810 10800 10794 10789 10783 10778 10773 10767 10755 10743 10734 10726 10718 10712 10707 10705 10699 10692 10686 10681 10673 10668 10664 10658 10653 10648 10643 10639 10637 10634 10631 10630 10631 10633 10636 10643
10832 10832 10833 10831 10827 10825 10826 10822 10818 10810 10812 10809 10806 10797 10791 10785 10776 10770 10765 10761 10753 10741 10732 10723 10715 10708 10703 10697 10691 10684 10678 10671 10666 10659 10654 10650 10646 10641 10637 10633 10628 10624 10620 10618 10617 10619 10621 10625 10632
10815 10822 10821 10819 10818 10814 10817 10813 10810 10802 10799 10797 10794 10785 10780 10773 10764 10756 10751 10745 10738 10728 10719 10710 10702 10697 10693 10685 10680 10674 10669 10661 10655 10649 10644 10640 10636 10632 10628 10624 10617 10613 10610 10607 10607 10608 10610 10616 10622
10808 10811 10809 10806 10806 10803 10813 10799 10800 10794 10790 10786 10782 10778 10771 10762 10754 10747 10740 10729 10720 10714 10706 10700 10694 10688 10682 10677 10672 10665 10659 10651 10645 10640 10637 10634 10629 10624 10619 10614 10608 10603 10600 10598 10598 10599 10602 10607 10613
10796 10800 10798 10792 10799 10793 10802 10788 10788 10785 10782 10779 10773 10768 10763 10753 10743 10736 10727 10719 10713 10707 10700 10693 10685 10679 10673 10669 10662 10654 10650 10643 10638 10633 10630 10626 10623 10618 10612 10605 10599 10594 10591 10590 10590 10592 10596 10601 10607
10777 10786 10789 10783 10787 10785 10791 10783 10775 10775 10773 10771 10766 10761 10755 10744 10734 10726 10719 10711 10705 10697 10689 10683 10679 10673 10665 10659 10652 10646 10641 10636 10631 10629 10626 10622 10617 10611 10604 10597 10592 10588 10585 10584 10584 10586 10589 10596 10602
10763 10779 10779 10770 10774 10776 10777 10775 10768 10768 10766 10763 10759 10753 10746 10737 10730 10718 10709 10704 10695 10688 10682 10677 10672 10665 10659 10652 10647 10641 10636 10631 10628 10625 10622 10617 10611 10605 10598 10591 10586 10583 10581 10579 10579 10582 10586 10592 10597
10760 10766 10763 10758 10763 10768 10764 10764 10764 10763 10758 10754 10749 10742 10735 10730 10724 10715 10705 10695 10689 10683 10677 10671 10664 10659 10653 10647 10642 10636 10631 10628 10625 10623 10619 10612 10605 10598 10592 10587 10582 10579 10577 10576 10577 10579 10584 10589 10595
10749 10752 10749 10748 10751 10758 10754 10755 10757 10757 10751 10747 10740 10733 10725 10723 10710 10701 10691 10685 10680 10675 10670 10664 10657 10653 10648 10642 10637 10632 10628 10625 10622 10618 10614 10608 10601 10594 10588 10583 10578 10576 10575 10575 10576 10578 10583 10588 10596
10734 10737 10734 10738 10740 10744 10745 10746 10748 10747 10741 10740 10732 10724 10715 10707 10701 10695 10686 10680 10674 10669 10662 10657 10652 10648 10644 10638 10633 10630 10626 10623 10619 10616 10611 10605 10598 10591 10585 10579 10575 10574 10574 10574 10576 10579 10584 10591 10597
10723 10719 10723 10729 10732 10733 10737 10737 10741 10741 10735 10733 10724 10714 10707 10702 10696 10689 10682 10675 10669 10663 10657 10652 10648 10644 10640 10635 10632 10628 10624 10622 10619 10614 10609 10603 10595 10588 10583 10577 10574 10573 10574 10574 10577 10581 10586 10592 10599
10708 10708 10716 10721 10724 10725 10727 10729 10732 10730 10726 10722 10718 10712 10704 10698 10691 10684 10677 10669 10664 10659 10653 10649 10645 10641 10636 10632 10630 10627 10625 10622 10618 10613 10607 10600 10592 10587 10581 10575 10574 10574 10575 10577 10580 10585 10590 10596 10602
10688 10703 10707 10712 10714 10717 10719 10722 10723 10721 10720 10717 10713 10708 10701 10695 10686 10677 10670 10664 10659 10654 10650 10647 10642 10637 10634 10631 10628 10626 10625 10621 10617 10611 10605 10597 10590 10585 10579 10575 10575 10576 10577 10579 10582 10587 10594 10599 10606
10684 10692 10700 10701 10706 10707 10713 10712 10715 10713 10714 10710 10709 10705 10697 10688 10680 10673 10665 10660 10655 10651 10648 10645 10639 10635 10632 10629 10627 10627 10625 10621 10616 10610 10603 10595 10588 10583 10577 10576 10577 10578 10579 10582 10586 10592 10598 10604 10611
10675 10679 10688 10693 10693 10698 10705 10703 10704 10703 10706 10704 10705 10701 10690 10684 10677 10668 10662 10658 10653 10649 10647 10642 10637 10634 10631 10628 10628 10628 10625 10621 10615 10609 10603 10594 10588 10583 10579 10579 10579 10582 10582 10585 10591 10596 10602 10607 10614
10664 10675 10672 10681 10688 10692 10695 10694 10698 10696 10701 10698 10699 10693 10686 10679 10671 10666 10661 10655 10651 10648 10645 10640 10637 10632 10629 10628 10628 10629 10626 10621 10617 10611 10603 10595 10590 10585 10581 10581 10582 10585 10588 10590 10596 10601 10606 10611 10617
10660 10656 10668 10678 10681 10680 10684 10689 10690 10690 10695 10694 10693 10688 10683 10676 10670 10664 10659 10653 10650 10647 10642 10638 10634 10631 10629 10628 10629 10629 10626 10622 10618 10612 10604 10598 10593 10589 10585 10585 10586 10589 10592 10595 10599 10604 10609 10614 10621
10646 10651 10659 10665 10670 10673 10677 10680 10683 10687 10689 10689 10688 10685 10680 10674 10668 10661 10656 10651 10649 10646 10641 10638 10634 10631 10628 10628 10630 10630 10628 10624 10620 10614 10608 10602 10598 10594 10592 10591 10590 10593 10597 10600 10604 10609 10615 10618 10624
10626 10639 10650 10658 10664 10667 10672 10673 10677 10682 10683 10684 10683 10681 10677 10671 10664 10658 10654 10650 10648 10645 10641 10637 10634 10631 10629 10629 10631 10630 10629 10626 10621 10616 10611 10606 10604 10601 10598 10598 10598 10599 10602 10606 10610 10614 10618 10622 10629